[[{"header":{"parameterUnit":"m.s-1","parameterCategory":1,"la1":30.2991,"la2":30.254,"lo1":-89.0895,"lo2":-89.0444,"dy":0.0017,"dx":0.0017,"nx":28,"ny":28,"refTime":"2024-07-15T21:00:00:Z","depth":0,"parameterNumber":2,"parameterNumberName":"U-component_of_WINDS"},"data":[0,0,0,0,0,0,0,0,0,0,0,0,0,0,0,0,0,0,0,0,0,0,0,0,0,0,0,0,0,0,0,0,0,0,0,0,0,0,0,0,0,0,0,0,0,0,0,0,0,0,0,0,0,0,0,0,0,0,1.7183,1.7183,0,1.7211,1.7211,1.7212,1.7203,1.7203,1.7202,1.7202,1.723,1.7231,1.7232,0,0,0,0,0,0,0,0,0,0,0,0,0,1.712,1.7121,1.7183,1.7183,1.7183,1.7211,1.7211,1.7212,1.7203,1.7203,1.7202,1.7201,1.723,1.7231,1.7233,0,0,0,0,0,0,0,0,0,0,0,0,0,1.7148,1.7122,1.7183,1.7183,1.7183,1.7211,1.7211,1.7212,1.7204,1.7203,1.7202,1.7201,1.7229,1.7231,1.7233,1.7263,0,0,1.7239,1.724,0,0,0,0,0,0,0,0,1.7146,1.715,1.7182,1.7183,1.7183,1.7203,1.72,1.7229,1.7204,1.7196,1.7202,1.7201,1.7222,1.7224,1.7231,1.7264,1.7265,1.7239,1.724,1.7241,1.7242,0,0,0,0,0,0,0,1.7144,1.7149,1.7194,1.7183,1.7183,1.7181,1.7184,1.7205,1.7213,1.7196,1.7196,1.7199,1.7222,1.7229,1.7232,1.7265,1.7239,1.7241,1.7242,1.7243,1.7322,1.7323,0,0,0,0,0,0,1.7142,1.7147,1.7193,1.7195,1.7162,1.7183,1.7186,1.7197,1.7213,1.7214,1.72,1.7199,1.7227,1.723,1.7233,1.7267,1.7241,1.7243,1.7244,1.7321,1.7322,1.7324,0,0,0,0,0,0,1.7141,1.7146,1.7192,1.7171,1.7176,1.7185,1.7197,1.7198,1.7206,1.7216,1.7217,1.7207,1.7226,1.723,1.7255,1.7268,1.7244,1.7245,1.732,1.7322,1.7323,1.7337,0,0,0,0,0,0,1.7139,1.7146,1.7158,1.7171,1.7178,1.7214,1.7198,1.72,1.721,1.7208,1.7222,1.7224,1.7226,1.7252,1.7257,1.727,1.7247,1.7319,1.7321,1.7323,1.7336,1.7339,1.7342,0,0,0,0,0,1.7137,1.7161,1.7158,1.7164,1.7192,1.7215,1.7218,1.722,1.7211,1.7222,1.7228,1.7223,1.7266,1.7255,1.726,1.7274,1.7318,1.732,1.7322,1.7334,1.7338,1.7342,0,0,0,0,0,0,1.7148,1.7163,1.716,1.7189,1.7201,1.7213,1.7228,1.7225,1.7239,1.7237,1.7239,1.7242,1.7267,1.7273,1.726,1.7303,1.7291,1.7294,1.7298,1.7302,1.7305,1.7302,1.7249,0,0,0,0,0,1.7154,1.7172,1.7183,1.7207,1.7213,1.722,1.7229,1.723,1.7242,1.7247,1.7255,1.7266,1.7282,1.7293,1.7308,1.7337,1.7339,1.735,1.7353,1.7355,1.7358,1.7372,1.7376,1.733,1.733,1.733,0,0,1.7167,1.7177,1.7187,1.721,1.7219,1.7236,1.7224,1.7243,1.7255,1.7249,1.7273,1.7279,1.7292,1.7319,1.7331,1.7325,1.7371,1.7358,1.736,1.7361,1.7375,1.7379,1.7383,1.7332,1.7332,1.7331,0,0,1.7198,1.7207,1.7228,1.7237,1.7251,1.7255,1.726,1.7273,1.7277,1.7301,1.7297,1.7311,1.7339,1.7348,1.7357,1.739,1.7386,1.7395,1.7411,1.7425,1.7429,1.7432,1.7443,1.7447,1.7398,1.7398,1.7398,0,1.7211,1.7237,1.7239,1.7258,1.7268,1.7264,1.7284,1.7293,1.7311,1.7317,1.7311,1.7345,1.7354,1.7381,1.7389,1.7397,1.7402,1.7393,1.7428,1.7431,1.7434,1.7445,1.7449,1.7399,1.7399,1.7399,1.7399,0,1.7252,1.727,1.7285,1.7302,1.7314,1.7334,1.7338,1.7349,1.7349,1.7353,1.7377,1.7387,1.7404,1.7411,1.7411,1.7438,1.7434,1.7428,1.7415,1.744,1.7449,1.7453,1.74,1.74,1.74,1.74,0,0,1.729,1.7308,1.7314,1.7321,1.7336,1.735,1.7369,1.7385,1.7394,1.7407,1.7422,1.7446,1.744,1.7449,1.745,1.7463,1.7487,1.7455,1.7455,1.7459,1.7517,1.752,1.7525,1.7485,1.7485,1.7486,1.7515,0,1.7321,1.7355,1.7357,1.7387,1.7403,1.74,1.7416,1.7427,1.7431,1.7445,1.745,1.7466,1.7458,1.7464,1.7476,1.7481,1.7498,1.748,1.7498,1.7498,1.7493,1.753,1.7534,1.7561,1.7519,1.7519,1.752,0,1.7361,1.7375,1.7407,1.7419,1.7425,1.744,1.7455,1.7469,1.748,1.7483,1.7493,1.7492,1.7511,1.7498,1.7524,1.7511,1.7518,1.7522,1.7523,1.7524,1.751,1.753,1.7569,1.7573,1.7526,1.7526,1.7525,0,1.7384,1.7411,1.7433,1.7439,1.7454,1.7464,1.7471,1.7482,1.7491,1.7504,1.751,1.7525,1.7533,1.7544,1.7547,1.7538,1.7572,1.756,1.7573,1.7573,1.758,1.7579,1.7619,1.7587,1.7587,1.7587,1.7587,0,1.7417,1.7437,1.7443,1.7456,1.7477,1.748,1.7501,1.7507,1.7516,1.753,1.7528,1.7541,1.7545,1.7558,1.7561,1.758,1.7585,1.7586,1.7586,1.7586,1.7585,1.759,1.7587,1.7588,1.7588,1.7588,1.7587,0,1.7446,1.7451,1.7475,1.7487,1.749,1.7505,1.7515,1.7527,1.7532,1.755,1.7554,1.7561,1.7576,1.758,1.76,1.7601,1.7624,1.7623,1.762,1.7619,1.7632,1.763,1.7676,1.7681,1.7647,1.7647,1.7647,0,1.7466,1.7481,1.7494,1.7503,1.751,1.7526,1.7535,1.7538,1.7548,1.7562,1.7573,1.7588,1.7601,1.7626,1.7632,1.7646,1.7645,1.766,1.7647,1.7645,1.7643,1.7642,1.7643,1.7662,1.7662,1.7663,1.7663,0,1.7501,1.7503,1.7517,1.7531,1.7543,1.7554,1.7566,1.7573,1.7578,1.7589,1.7605,1.7614,1.7634,1.7649,1.7663,1.7669,1.7666,1.7667,1.767,1.7669,1.7666,1.7666,1.7625,1.7666,1.7665,1.7665,1.7665,1.7665,1.7525,1.7537,1.7548,1.7564,1.7572,1.7583,1.7595,1.7601,1.7614,1.763,1.7631,1.7648,1.7659,1.7677,1.7684,1.7697,1.7693,1.7699,1.77,1.7701,1.7701,1.7665,1.77,1.77,1.77,1.77,1.77,0,1.7558,1.7565,1.7579,1.7595,1.7607,1.7604,1.7616,1.7626,1.7641,1.7651,1.7663,1.7681,1.7696,1.7703,1.7717,1.7726,1.7725,1.773,1.7728,1.773,1.7705,1.77,1.773,1.773,1.773,1.773,1.773,1.773,1.7577,1.7597,1.76,1.7625,1.7631,1.7648,1.7655,1.7664,1.7672,1.7692,1.7704,1.7709,1.7718,1.7733,1.7746,1.7748,1.7752,1.7757,1.7758,1.7735,1.7731,1.7728,1.7723,1.7758,1.7758,1.7781,1.7781,1.7782]},{"header":{"parameterUnit":"m.s-1","parameterCategory":1,"la1":30.2991,"la2":30.254,"lo1":-89.0895,"lo2":-89.0444,"dy":0.0017,"dx":0.0017,"nx":28,"ny":28,"refTime":"2024-07-15T21:00:00:Z","depth":0,"parameterNumber":3,"parameterNumberName":"V-component_of_WINDS"},"data":[0,0,0,0,0,0,0,0,0,0,0,0,0,0,0,0,0,0,0,0,0,0,0,0,0,0,0,0,0,0,0,0,0,0,0,0,0,0,0,0,0,0,0,0,0,0,0,0,0,0,0,0,0,0,0,0,0,0,3.6816,3.6817,0,3.6853,3.6853,3.6854,3.684,3.684,3.6839,3.6838,3.6871,3.6872,3.6874,0,0,0,0,0,0,0,0,0,0,0,0,0,3.6731,3.6733,3.6816,3.6817,3.6817,3.6853,3.6853,3.6854,3.6841,3.684,3.6839,3.6838,3.687,3.6872,3.6874,0,0,0,0,0,0,0,0,0,0,0,0,0,3.6768,3.6733,3.6816,3.6815,3.6815,3.6853,3.6853,3.6854,3.6841,3.684,3.6838,3.6837,3.687,3.6872,3.6874,3.6913,0,0,3.6882,3.6883,0,0,0,0,0,0,0,0,3.6766,3.6771,3.6815,3.6815,3.6816,3.6841,3.6835,3.6874,3.6841,3.6831,3.6838,3.6837,3.6862,3.6865,3.6874,3.6915,3.6916,3.6882,3.6884,3.6885,3.6885,0,0,0,0,0,0,0,3.6763,3.6769,3.6831,3.6816,3.6816,3.6811,3.6815,3.6842,3.6852,3.6832,3.6831,3.6836,3.6862,3.6872,3.6875,3.6917,3.6882,3.6884,3.6886,3.6887,3.6991,3.6992,0,0,0,0,0,0,3.6761,3.6767,3.6829,3.6832,3.6787,3.6814,3.6818,3.6834,3.6852,3.6854,3.6837,3.6835,3.6868,3.6872,3.6876,3.6922,3.6885,3.6887,3.6888,3.6989,3.6991,3.6992,0,0,0,0,0,0,3.6759,3.6767,3.6828,3.6799,3.6807,3.6817,3.6834,3.6835,3.6845,3.6856,3.6857,3.6845,3.6867,3.6872,3.6904,3.6923,3.6888,3.689,3.6988,3.699,3.6992,3.7016,0,0,0,0,0,0,3.6757,3.6766,3.6782,3.68,3.6808,3.6858,3.6836,3.6837,3.685,3.6848,3.6864,3.6866,3.6867,3.6901,3.6907,3.6926,3.6892,3.6986,3.6989,3.6991,3.7013,3.7018,3.7022,0,0,0,0,0,3.6754,3.6787,3.6783,3.6791,3.6829,3.6859,3.6863,3.6865,3.6852,3.6867,3.6874,3.6865,3.692,3.6904,3.6911,3.6931,3.6985,3.6988,3.6991,3.7011,3.7017,3.7022,0,0,0,0,0,0,3.677,3.6789,3.6785,3.6825,3.6841,3.6856,3.6876,3.6871,3.689,3.6887,3.6886,3.689,3.6923,3.693,3.6912,3.6969,3.695,3.6955,3.6963,3.6969,3.6974,3.6971,3.6894,0,0,0,0,0,3.6778,3.6802,3.6817,3.6851,3.6859,3.6866,3.6879,3.6879,3.6894,3.69,3.6909,3.6923,3.6943,3.6957,3.6976,3.7014,3.7017,3.7031,3.7036,3.7039,3.7043,3.7063,3.7069,3.7002,3.7002,3.7002,0,0,3.6795,3.6809,3.6824,3.6854,3.6866,3.689,3.6872,3.6897,3.6914,3.6904,3.6935,3.6942,3.6957,3.6992,3.7008,3.6999,3.7062,3.7043,3.7046,3.7048,3.7066,3.7073,3.7078,3.7004,3.7004,3.7003,0,0,3.6838,3.6851,3.6881,3.6893,3.6912,3.6917,3.6924,3.694,3.6945,3.6977,3.6969,3.6988,3.7023,3.7035,3.7045,3.7092,3.7084,3.7098,3.7122,3.7141,3.7146,3.7151,3.7167,3.7173,3.7101,3.7101,3.7102,0,3.6856,3.6893,3.6896,3.6922,3.6935,3.6928,3.6957,3.6969,3.6992,3.7,3.699,3.7034,3.7044,3.7081,3.7093,3.7101,3.7108,3.7096,3.7146,3.715,3.7155,3.717,3.7176,3.7103,3.7103,3.7103,3.7103,0,3.6914,3.694,3.6961,3.6985,3.7001,3.7028,3.7033,3.7048,3.7047,3.7052,3.7083,3.7095,3.7116,3.7125,3.7123,3.7162,3.7156,3.7146,3.7127,3.7162,3.7177,3.7183,3.7105,3.7105,3.7104,3.7104,0,0,3.6969,3.6994,3.7002,3.7013,3.7033,3.7051,3.7078,3.71,3.7112,3.7129,3.715,3.718,3.717,3.7182,3.7181,3.7198,3.7234,3.7186,3.7186,3.7194,3.7276,3.7283,3.729,3.7229,3.723,3.7231,3.7275,0,3.7013,3.7061,3.7064,3.7107,3.713,3.7123,3.7146,3.716,3.7165,3.7184,3.7189,3.721,3.7197,3.7204,3.722,3.7226,3.725,3.7223,3.7248,3.7249,3.7244,3.7298,3.7306,3.7346,3.728,3.7281,3.7282,0,3.7071,3.7091,3.7136,3.7153,3.7162,3.7183,3.7203,3.7222,3.7237,3.7239,3.7252,3.7249,3.7274,3.7255,3.7289,3.7271,3.7281,3.7285,3.7287,3.7289,3.7267,3.7301,3.7359,3.7365,3.7291,3.729,3.729,0,3.7105,3.7143,3.7175,3.7184,3.7204,3.7219,3.7227,3.7242,3.7254,3.7271,3.728,3.7299,3.7309,3.7324,3.7325,3.7311,3.7359,3.734,3.7361,3.7361,3.7371,3.737,3.7432,3.7379,3.7378,3.7378,3.7378,0,3.7154,3.7182,3.719,3.721,3.7241,3.7243,3.7273,3.728,3.7293,3.7312,3.7307,3.7326,3.7327,3.7345,3.7346,3.7374,3.7379,3.738,3.738,3.7381,3.738,3.7387,3.7384,3.738,3.738,3.7379,3.7379,0,3.7198,3.7204,3.7239,3.7255,3.726,3.7282,3.7295,3.7313,3.7318,3.7343,3.7349,3.7356,3.7377,3.7381,3.7405,3.7406,3.7439,3.7436,3.7434,3.7434,3.7454,3.7452,3.7521,3.753,3.7472,3.7472,3.7473,0,3.7228,3.725,3.7269,3.7283,3.7292,3.7314,3.7328,3.733,3.7344,3.7363,3.7378,3.7399,3.7416,3.745,3.7457,3.7476,3.7473,3.7496,3.7475,3.7475,3.7472,3.7471,3.7473,3.7499,3.75,3.7501,3.7501,0,3.7282,3.7284,3.7305,3.7326,3.7343,3.7359,3.7375,3.7386,3.739,3.7406,3.7428,3.7442,3.7467,3.7488,3.7506,3.7513,3.7508,3.7507,3.7513,3.7513,3.7511,3.7512,3.7445,3.7506,3.7505,3.7505,3.7505,3.7504,3.7319,3.7338,3.7354,3.7377,3.7389,3.7404,3.7422,3.7429,3.7449,3.7471,3.747,3.7495,3.7508,3.7533,3.7541,3.7559,3.7552,3.756,3.7562,3.7564,3.7566,3.7509,3.7563,3.7562,3.7562,3.7562,3.7562,0,3.7372,3.7382,3.7403,3.7426,3.7443,3.7438,3.7455,3.7469,3.7491,3.7505,3.7522,3.7548,3.7567,3.7576,3.7595,3.7608,3.7605,3.7613,3.7611,3.7613,3.7572,3.7565,3.7614,3.7614,3.7614,3.7614,3.7614,3.7614,3.7401,3.7433,3.7437,3.7473,3.7483,3.7508,3.7518,3.7531,3.7542,3.7571,3.7588,3.7594,3.7605,3.7625,3.7642,3.7644,3.7651,3.7659,3.766,3.7621,3.7616,3.7611,3.7604,3.7661,3.7661,3.7699,3.77,3.77]}]]